パンスターズ彗星

C/2019 A9 ( PanSTARRS )

English version
Home page
Updated on December 26, 2019

---------------------------------------------------------------------

・ プロフィール

発見日 2019年1月14日
発見光度 20.3等
発見者 Pan-STARRS 1 telescope (Haleakala)

・ 写真集

・ 軌道要素

Epoch 2019 July 16.0 TT = JDT 2458680.5
T 2019 July 26.52552 TT                                 Williams
q   1.4263981            (2000.0)            P               Q
z  +0.0257932      Peri.  237.80135     -0.16009840     +0.07117674
 +/-0.0000000      Node   278.36853     +0.80750074     -0.56420229
e   0.9632086      Incl.   84.34150     -0.56772446     -0.82256285
From 176 observations 2018 Dec. 18-2019 Oct. 19, mean residual 0".4.

・ 星図

・ 光度変化

        m1 = 6.0 + 5 logΔ + 25.0 log r(t - 30)

---------------------------------------------------------------------

軌道要素はM.P.E.C. 2019-X94に掲載されたものです。
星図はステラナビゲータ Ver.10 (アストロアーツ) で作成したものです。
光度グラフはComet for Windowsで作成したものです。

---------------------------------------------------------------------

Copyright(C) Seiichi Yoshida (comet@aerith.net). All rights reserved.